Temperature
-2 -2 -2 -2 -2 -2 -2 -2 -1 -1 -1 -0 0 1 1 2 3 4 4 6 7 8 9 9 10 11 12 13 13 14 15 15 15 15 16 16 16 16 16 16 16 16 16
-3 -3 -4 -4 -4 -4 -4 -4 -3 -3 -2 -2 -1 -0 0 1 2 2 3 4 6 7 8 9 9 10 11 12 13 14 14 15 15 15 15 16 16 16 16 16 16 16 16
-4 -5 -5 -5 -5 -5 -5 -5 -5 -4 -4 -3 -2 -1 -1 0 1 1 2 3 4 5 6 8 9 9 10 11 12 13 14 14 15 15 15 15 15 16 16 16 16 16 16
-6 -6 -6 -7 -7 -7 -6 -6 -6 -5 -5 -4 -4 -3 -2 -1 -0 0 1 2 3 4 5 6 8 9 10 10 12 13 13 14 14 15 15 15 15 15 15 16 16 16 16
-7 -7 -7 -8 -8 -8 -8 -8 -7 -7 -7 -6 -5 -4 -3 -2 -1 -1 -0 0 1 2 3 5 7 8 9 10 11 12 13 14 14 14 14 15 15 15 15 15 16 16 16
-8 -8 -8 -9 -9 -9 -9 -9 -9 -8 -8 -8 -7 -5 -4 -3 -2 -2 -2 -2 -1 -0 1 2 4 7 8 9 10 11 12 13 13 14 14 14 15 15 15 15 15 15 16
-8 -9 -9 -10 -10 -10 -10 -10 -10 -10 -9 -9 -8 -7 -4 -4 -4 -5 -4 -3 -3 -2 -1 0 2 5 7 8 9 10 11 12 13 13 14 14 14 14 15 15 15 15 15
-9 -10 -10 -11 -11 -11 -11 -11 -11 -11 -11 -11 -12 -12 -10 -8 -6 -5 -4 -4 -4 -3 -2 -1 1 2 5 7 8 9 11 12 12 13 13 13 14 14 14 14 15 15 15
-10 -10 -11 -11 -12 -12 -13 -13 -12 -12 -12 -12 -12 -12 -11 -10 -10 -8 -7 -6 -6 -5 -4 -2 -1 1 3 5 7 8 10 11 12 12 12 13 13 13 14 14 14 15 15
-10 -11 -12 -12 -13 -13 -13 -13 -13 -13 -13 -13 -13 -12 -12 -11 -11 -9 -9 -8 -7 -6 -5 -3 -2 -0 1 3 5 7 8 10 11 11 12 12 12 13 13 13 14 14 15
-11 -12 -12 -13 -13 -13 -13 -14 -14 -13 -14 -14 -13 -13 -12 -11 -11 -10 -10 -9 -8 -7 -6 -4 -3 -1 1 2 4 6 7 8 10 11 11 12 12 12 13 13 13 14 14
-12 -12 -13 -13 -13 -13 -14 -14 -14 -14 -14 -13 -13 -13 -12 -12 -11 -11 -10 -10 -9 -8 -6 -5 -4 -2 -0 1 2 4 6 7 8 10 11 11 12 12 12 13 13 13 14
-12 -12 -13 -13 -13 -13 -13 -14 -14 -14 -13 -13 -13 -12 -12 -11 -11 -11 -10 -10 -9 -8 -7 -6 -5 -3 -2 -1 1 3 5 6 7 9 10 11 11 12 12 13 13 13 13
-13 -13 -13 -13 -13 -13 -13 -13 -13 -13 -13 -13 -12 -12 -11 -11 -10 -10 -10 -9 -9 -8 -7 -7 -5 -3 -3 -2 -0 2 4 6 7 8 9 10 11 11 12 12 13 13 13
-13 -12 -12 -12 -13 -13 -13 -13 -13 -13 -13 -12 -11 -11 -10 -10 -9 -9 -9 -9 -9 -8 -7 -7 -6 -4 -3 -2 -1 1 3 5 6 7 8 9 10 11 11 12 12 13 13
-12 -12 -12 -12 -12 -12 -12 -12 -12 -12 -12 -11 -11 -10 -10 -9 -9 -9 -9 -8 -8 -8 -8 -7 -6 -5 -4 -2 -1 0 2 4 5 6 7 8 9 10 11 11 12 13 13
-12 -12 -12 -12 -11 -11 -11 -11 -11 -11 -11 -11 -10 -10 -10 -9 -9 -9 -9 -8 -8 -8 -8 -7 -6 -5 -4 -3 -1 -0 1 4 5 6 7 8 9 10 11 11 12 12 13
-12 -11 -11 -11 -11 -11 -11 -10 -10 -10 -10 -10 -10 -10 -10 -9 -9 -9 -9 -9 -9 -8 -8 -8 -6 -5 -4 -2 -2 -0 1 3 5 6 7 8 9 9 10 11 11 12 12
-12 -11 -11 -11 -11 -11 -11 -10 -10 -10 -10 -10 -10 -10 -10 -10 -10 -9 -9 -9 -9 -9 -8 -7 -6 -5 -3 -2 -2 -0 1 3 4 6 7 8 8 9 10 10 11 11 12
-12 -12 -11 -11 -10 -10 -11 -11 -10 -10 -10 -10 -10 -10 -10 -10 -10 -10 -10 -10 -9 -9 -8 -7 -6 -5 -4 -2 -2 -1 1 2 4 5 7 8 8 9 9 10 11 11 12
-12 -12 -12 -11 -10 -10 -10 -11 -11 -11 -11 -11 -10 -10 -10 -11 -10 -11 -10 -10 -10 -10 -9 -8 -6 -5 -4 -3 -2 -1 0 2 4 5 6 7 8 8 9 10 10 11 11
-12 -12 -12 -12 -11 -10 -11 -11 -12 -12 -12 -12 -12 -11 -11 -11 -11 -11 -11 -11 -10 -10 -10 -9 -8 -6 -5 -4 -3 -2 -1 1 3 4 5 7 7 8 9 9 10 10 11
-13 -13 -12 -12 -11 -11 -11 -12 -12 -12 -12 -12 -12 -12 -12 -12 -11 -11 -11 -11 -10 -10 -10 -10 -9 -7 -6 -5 -4 -2 -1 -0 2 3 4 6 7 7 8 9 10 10 11
-13 -13 -13 -12 -12 -12 -11 -12 -12 -12 -12 -13 -13 -13 -13 -12 -11 -11 -11 -11 -11 -11 -10 -10 -9 -8 -7 -6 -4 -3 -2 -1 1 2 3 5 6 7 7 8 9 10 10
-13 -13 -13 -13 -13 -12 -12 -11 -12 -12 -13 -13 -13 -13 -13 -13 -12 -12 -12 -11 -11 -11 -10 -10 -9 -8 -7 -6 -5 -3 -2 -1 0 1 3 4 5 6 7 7 8 9 10
-13 -13 -13 -13 -13 -13 -12 -12 -12 -13 -13 -13 -14 -14 -13 -13 -13 -12 -13 -12 -12 -11 -10 -9 -8 -8 -7 -6 -5 -3 -2 -2 -1 1 2 3 4 5 6 7 7 8 9
Wind_Speed
16 17 17 17 18 19 19 19 19 19 19 20 19 19 19 20 20 20 20 27 29 28 27 26 25 25 24 23 23 29 31 33 33 32 32 32 31 31 30 30 29 29 29
17 17 16 16 17 19 19 19 19 17 16 17 16 19 19 20 19 20 21 24 26 27 26 25 25 24 24 23 22 26 32 33 34 34 33 32 32 32 31 31 30 30 30
19 18 15 14 17 20 20 19 18 15 14 14 13 16 17 17 19 21 21 20 20 23 24 24 23 23 23 23 22 22 29 34 34 35 35 34 33 33 32 32 31 30 30
19 18 15 14 19 19 17 15 10 12 12 12 13 13 13 15 17 20 18 17 17 16 19 22 23 22 21 21 21 20 23 32 34 35 36 36 34 34 34 33 32 31 30
20 19 15 15 19 16 14 13 10 11 13 13 14 14 12 13 14 15 13 15 15 15 14 20 22 21 20 20 19 18 18 26 33 35 36 37 36 35 34 34 33 32 31
20 19 15 16 18 12 8 9 11 11 11 13 15 15 14 15 13 10 10 9 11 12 16 18 18 18 20 20 19 17 16 19 27 32 34 35 36 36 35 34 34 33 32
20 19 15 16 16 9 9 10 11 13 10 10 11 13 12 11 10 5 7 7 7 10 15 17 17 16 15 20 20 18 16 15 20 27 31 32 34 36 35 34 34 33 32
20 19 17 15 15 10 10 10 11 10 11 8 9 11 8 6 4 10 8 7 6 8 11 16 17 17 17 14 17 20 16 14 14 21 27 29 31 33 35 35 33 33 32
21 20 19 18 16 10 10 10 10 11 12 10 6 6 6 6 12 5 6 6 7 8 9 11 14 18 19 15 15 16 17 15 13 14 22 27 28 31 33 33 32 31 31
20 20 19 19 16 13 10 11 9 10 11 11 9 7 9 10 8 7 5 6 9 10 10 12 13 15 17 14 15 17 17 15 13 12 15 21 25 29 32 33 32 29 28
18 20 20 19 16 14 12 11 12 10 9 10 10 10 10 10 11 11 14 10 9 8 8 11 12 11 14 14 12 14 17 14 13 13 12 15 22 27 30 32 33 32 29
13 17 20 18 18 16 13 13 11 11 10 11 10 9 10 8 8 9 12 15 14 10 9 9 11 10 10 12 14 16 16 13 13 13 12 11 14 22 27 30 33 34 33
12 12 19 17 17 18 18 16 12 12 11 11 10 10 10 10 11 11 13 14 15 12 8 7 7 10 10 9 10 17 14 13 12 14 14 12 10 13 19 25 31 35 35
12 18 21 22 22 21 19 15 12 13 11 10 12 12 10 11 11 11 11 12 14 11 7 7 8 9 6 8 14 18 12 14 13 13 14 12 10 12 15 19 26 32 34
17 21 23 22 22 21 18 14 11 12 11 11 11 12 10 10 10 10 11 11 11 13 13 7 5 6 8 11 16 13 11 14 14 13 13 12 10 12 15 16 21 28 32
19 19 19 20 20 18 15 13 11 11 11 11 10 11 10 9 9 9 9 10 10 11 12 6 7 9 12 13 17 13 12 16 13 12 12 12 9 11 14 16 19 25 29
18 17 18 20 20 18 14 10 10 10 10 10 9 9 9 9 8 8 8 8 9 9 12 12 10 10 11 12 12 10 11 8 7 11 11 11 8 9 13 16 18 23 28
17 18 18 18 19 17 14 11 11 11 10 9 9 9 8 8 9 8 7 8 8 9 11 14 12 10 11 11 11 11 8 6 5 9 11 10 7 8 11 15 18 21 25
14 17 16 18 18 16 12 12 12 13 13 12 12 11 11 10 10 9 9 8 8 9 9 11 12 10 8 8 8 8 7 5 6 6 8 7 5 7 10 13 17 20 23
12 15 16 16 17 15 9 9 12 13 13 14 14 14 13 12 11 12 10 9 10 10 9 9 8 7 6 7 5 4 3 3 3 3 4 4 4 7 10 12 16 18 21
13 13 15 16 16 14 9 8 10 13 12 13 14 14 14 19 21 17 14 12 11 10 9 8 7 6 5 4 3 3 2 2 2 2 2 1 2 3 5 8 12 16 19
12 13 13 15 17 15 20 23 15 10 11 12 13 14 14 15 20 21 24 22 19 14 11 8 7 7 8 7 6 6 3 1 1 0 1 1 2 4 4 5 9 14 17
10 12 12 13 15 19 24 22 23 11 10 11 12 13 14 17 20 8 17 21 18 21 19 11 8 9 9 9 9 8 6 3 1 2 2 2 1 3 4 4 12 14 16
9 8 10 13 13 19 26 20 21 11 8 10 11 12 14 14 18 15 13 14 11 12 15 11 8 8 9 10 8 7 7 6 4 1 1 1 1 1 3 4 12 15 16
8 8 9 11 12 17 25 21 16 7 8 10 11 14 16 13 24 25 16 15 14 12 17 19 17 15 16 15 12 6 5 3 1 1 1 0 1 0 2 3 7 14 16
9 10 11 10 11 13 21 23 16 6 8 9 10 13 20 22 25 26 16 15 16 14 14 14 14 14 11 12 15 8 5 3 2 0 1 0 1 0 2 2 3 7 10
Wind_Direction
342 339 333 332 335 337 334 331 329 325 326 323 320 319 316 313 308 307 307 307 307 307 305 303 301 298 291 286 271 245 231 224 215 209 207 205 202 199 196 195 195 194 192
340 337 331 330 335 335 332 328 322 322 323 320 317 316 311 307 305 305 304 304 305 305 305 303 301 297 294 286 280 256 235 226 219 212 208 206 203 200 198 197 196 195 194
339 336 330 330 333 332 330 329 321 325 322 320 316 313 309 306 304 303 302 300 301 305 305 307 306 301 294 287 284 270 243 229 222 215 209 206 203 201 199 198 197 196 195
336 334 327 326 329 329 329 327 326 329 322 320 317 312 307 305 302 299 298 296 298 302 310 317 316 311 300 292 286 282 256 235 225 218 211 206 203 202 201 199 197 196 196
333 329 321 323 327 325 325 326 330 325 321 321 316 310 306 302 295 294 294 295 300 308 322 326 325 324 316 304 295 289 273 243 230 222 214 208 204 202 201 200 198 197 197
330 326 318 324 324 321 320 321 322 321 317 317 315 309 303 293 285 282 288 300 309 325 337 332 329 327 326 320 311 302 289 259 235 225 218 211 206 203 202 201 199 198 197
326 322 320 322 319 316 316 316 320 319 319 322 318 317 301 278 275 295 305 300 310 340 337 334 329 327 326 325 320 316 306 287 247 228 219 215 210 206 204 202 201 199 198
325 326 322 318 314 312 311 313 317 316 319 329 319 320 316 310 340 323 297 296 321 337 332 331 323 325 322 317 315 317 320 311 281 238 221 216 213 209 207 205 203 200 198
323 320 316 315 312 308 307 307 305 313 315 313 303 303 307 312 324 277 280 306 330 323 322 321 321 320 313 312 310 313 322 325 308 266 230 216 213 212 210 206 204 203 200
323 322 320 315 311 309 302 301 311 303 303 306 304 277 281 293 296 306 305 311 307 314 313 317 315 310 307 304 303 308 315 328 325 298 255 224 213 213 213 207 203 202 202
323 321 321 315 311 308 301 296 297 292 293 291 293 291 288 283 272 285 299 307 309 298 296 304 304 301 302 302 301 307 319 328 330 316 288 246 219 216 214 207 203 201 202
320 316 317 311 307 304 299 297 291 287 287 284 283 281 283 283 285 287 290 300 303 302 298 295 295 296 298 301 303 313 322 330 337 330 313 284 239 221 217 208 203 199 200
324 317 315 310 306 300 298 295 291 288 283 279 277 278 277 274 278 279 283 291 295 300 291 286 284 294 294 299 315 328 327 334 335 333 325 304 266 231 220 211 202 199 199
317 314 316 312 307 302 299 295 291 286 283 279 279 277 275 273 272 272 275 284 293 297 290 277 292 286 299 325 319 323 319 326 331 328 322 311 278 237 221 213 201 197 197
320 321 317 314 312 307 301 298 292 285 284 282 280 279 276 275 273 271 271 273 283 296 300 287 281 297 314 308 305 307 308 313 319 318 317 312 285 239 217 208 198 192 193
323 322 322 323 323 320 310 302 298 291 287 285 283 282 283 284 282 278 276 276 275 279 286 282 281 286 291 293 296 298 299 303 306 307 310 311 289 239 214 203 194 188 188
327 328 329 331 333 336 333 321 312 305 301 300 300 301 302 303 305 300 292 288 285 283 285 289 285 284 280 282 286 285 283 281 286 298 306 311 293 240 213 200 191 185 184
331 333 335 339 344 348 350 352 347 345 339 337 336 334 331 337 331 322 316 309 302 295 288 290 289 285 277 276 276 275 276 274 271 292 302 310 293 240 211 198 189 184 183
333 337 341 343 344 348 357 9 11 10 10 6 2 356 348 347 352 342 332 329 318 311 299 289 286 282 276 273 271 269 264 259 265 274 298 307 282 232 208 198 190 185 183
337 340 341 342 343 341 351 17 16 13 11 8 7 3 353 353 357 349 346 344 331 323 317 307 293 286 283 276 264 259 265 242 249 268 303 305 261 219 201 195 191 186 184
342 339 341 342 344 343 357 38 25 13 7 3 1 357 352 356 360 2 356 357 347 339 338 335 329 320 317 327 323 305 263 259 250 242 301 289 214 200 191 193 190 183 181
338 339 339 340 343 344 5 27 29 12 3 0 355 350 347 347 355 4 360 1 359 352 354 352 344 343 343 345 339 331 311 259 248 44 10 287 184 189 179 179 182 179 178
332 335 335 337 339 340 1 28 25 17 0 355 350 348 349 348 351 358 357 357 356 357 357 356 345 343 338 340 337 333 333 329 305 345 14 343 188 184 168 170 175 180 179
327 327 326 332 336 340 353 20 26 15 355 349 345 344 342 340 344 11 359 349 351 353 351 350 346 341 340 335 335 320 305 302 287 272 74 338 311 160 153 165 179 180 179
319 321 324 328 332 334 343 5 27 3 1 348 347 351 348 347 354 9 5 352 352 355 354 355 360 1 1 356 4 353 335 301 273 188 122 330 328 59 128 149 173 178 176
321 329 329 327 322 322 334 349 16 16 6 357 351 350 350 2 3 7 8 357 357 356 348 346 351 355 353 355 8 7 343 324 319 317 94 92 309 276 125 101 137 159 165
Height
1530 1526 1521 1516 1512 1507 1502 1497 1492 1488 1484 1481 1477 1474 1470 1467 1465 1462 1461 1461 1460 1461 1462 1464 1465 1468 1471 1474 1478 1481 1486 1490 1495 1499 1504 1509 1513 1518 1523 1528 1533 1538 1542
1527 1522 1517 1512 1507 1502 1497 1492 1488 1482 1478 1474 1471 1468 1464 1461 1458 1456 1454 1453 1452 1453 1454 1455 1457 1459 1462 1465 1469 1473 1477 1481 1486 1492 1497 1502 1507 1512 1516 1522 1527 1532 1537
1523 1518 1513 1508 1502 1497 1493 1488 1483 1478 1473 1468 1464 1461 1458 1454 1452 1449 1447 1446 1445 1445 1446 1447 1448 1450 1453 1456 1460 1464 1468 1473 1478 1484 1489 1495 1500 1505 1510 1515 1521 1526 1532
1519 1514 1509 1504 1498 1493 1488 1483 1477 1472 1467 1462 1457 1453 1451 1448 1445 1443 1440 1439 1438 1437 1437 1438 1439 1442 1444 1447 1451 1455 1459 1464 1469 1475 1481 1487 1493 1498 1504 1509 1514 1520 1526
1516 1510 1505 1499 1494 1488 1484 1479 1473 1468 1462 1456 1451 1447 1444 1441 1439 1436 1434 1433 1432 1431 1430 1429 1431 1433 1436 1438 1442 1447 1451 1455 1460 1466 1472 1479 1485 1491 1497 1503 1508 1514 1520
1512 1506 1500 1495 1489 1483 1478 1474 1468 1464 1459 1452 1446 1440 1437 1434 1432 1430 1428 1427 1426 1425 1423 1423 1423 1424 1427 1430 1433 1437 1442 1446 1451 1456 1463 1470 1476 1483 1489 1495 1501 1507 1513
1507 1501 1495 1490 1484 1479 1474 1469 1464 1458 1454 1449 1442 1433 1429 1427 1425 1424 1423 1423 1422 1420 1418 1417 1417 1417 1419 1421 1425 1429 1433 1437 1441 1446 1453 1460 1467 1475 1481 1488 1494 1501 1507
1503 1497 1491 1485 1480 1474 1469 1465 1460 1454 1450 1447 1443 1435 1427 1422 1421 1420 1419 1417 1417 1415 1413 1412 1411 1410 1411 1413 1417 1421 1425 1429 1433 1437 1442 1449 1457 1465 1472 1480 1487 1494 1500
1499 1493 1486 1480 1475 1470 1465 1460 1456 1451 1446 1443 1442 1440 1434 1426 1418 1412 1413 1413 1412 1410 1409 1407 1405 1405 1404 1406 1410 1413 1417 1421 1426 1430 1433 1438 1447 1455 1463 1471 1479 1486 1494
1494 1488 1482 1476 1470 1465 1460 1456 1452 1448 1443 1438 1437 1435 1434 1430 1425 1413 1408 1408 1408 1406 1404 1402 1400 1400 1399 1400 1403 1406 1410 1414 1419 1423 1427 1430 1437 1446 1453 1462 1470 1478 1486
1490 1484 1478 1472 1466 1461 1455 1450 1446 1442 1439 1435 1432 1429 1427 1425 1422 1418 1407 1402 1402 1401 1400 1398 1396 1395 1394 1395 1397 1399 1403 1407 1412 1418 1422 1426 1431 1438 1446 1453 1461 1470 1479
1485 1480 1474 1468 1462 1456 1450 1445 1440 1436 1433 1429 1426 1424 1422 1420 1417 1414 1408 1401 1398 1396 1395 1393 1391 1390 1389 1390 1391 1393 1397 1401 1406 1412 1417 1422 1427 1432 1440 1448 1454 1461 1470
1482 1475 1469 1463 1456 1450 1444 1439 1434 1430 1426 1423 1421 1419 1416 1415 1413 1410 1406 1400 1396 1392 1390 1388 1387 1386 1385 1385 1386 1387 1391 1396 1401 1406 1411 1417 1423 1428 1435 1442 1448 1455 1463
1481 1473 1467 1459 1451 1444 1437 1432 1427 1423 1420 1417 1415 1414 1411 1409 1407 1405 1403 1399 1393 1388 1386 1384 1382 1382 1381 1381 1381 1382 1385 1390 1395 1401 1406 1412 1418 1424 1430 1437 1444 1450 1457
1480 1472 1464 1454 1445 1437 1431 1426 1421 1417 1415 1412 1410 1409 1407 1404 1402 1400 1398 1396 1394 1387 1382 1380 1379 1377 1376 1376 1377 1377 1380 1384 1390 1396 1401 1407 1414 1420 1426 1432 1439 1445 1452
1479 1470 1461 1451 1442 1433 1427 1422 1418 1414 1411 1409 1407 1405 1403 1401 1399 1396 1393 1391 1389 1386 1380 1375 1374 1372 1371 1371 1372 1373 1374 1379 1385 1391 1396 1402 1408 1414 1421 1427 1433 1439 1447
1478 1469 1461 1452 1443 1435 1428 1422 1417 1414 1411 1408 1406 1404 1402 1399 1396 1393 1390 1387 1384 1381 1376 1370 1369 1367 1366 1366 1367 1368 1370 1373 1380 1386 1392 1398 1403 1409 1415 1422 1428 1435 1442
1477 1470 1463 1455 1447 1439 1433 1427 1421 1417 1413 1409 1407 1404 1402 1399 1394 1390 1387 1383 1379 1376 1373 1366 1363 1362 1361 1362 1362 1364 1366 1369 1375 1381 1387 1393 1397 1404 1410 1417 1423 1430 1437
1477 1471 1464 1457 1450 1444 1438 1432 1427 1422 1417 1413 1409 1406 1403 1399 1394 1389 1384 1380 1376 1371 1368 1363 1359 1358 1357 1358 1359 1360 1362 1366 1370 1377 1383 1388 1393 1399 1406 1412 1418 1425 1432
1478 1471 1465 1459 1453 1447 1441 1435 1430 1425 1420 1416 1412 1408 1403 1399 1394 1388 1383 1378 1373 1368 1363 1359 1356 1354 1354 1355 1356 1357 1359 1362 1367 1372 1377 1383 1389 1395 1401 1407 1413 1419 1426
1479 1473 1467 1461 1454 1448 1443 1438 1432 1427 1422 1417 1413 1408 1404 1400 1395 1389 1383 1377 1371 1366 1361 1356 1354 1352 1352 1353 1354 1355 1356 1359 1363 1368 1373 1379 1386 1391 1396 1402 1408 1414 1421
1479 1473 1468 1462 1456 1450 1446 1440 1434 1428 1423 1418 1413 1408 1403 1398 1394 1387 1382 1375 1370 1365 1361 1356 1353 1351 1350 1351 1352 1352 1354 1357 1361 1365 1369 1375 1381 1386 1391 1397 1403 1409 1416
1479 1474 1469 1463 1457 1451 1447 1441 1435 1430 1424 1419 1413 1408 1404 1399 1393 1386 1380 1374 1368 1363 1360 1357 1353 1351 1350 1350 1350 1351 1352 1354 1358 1362 1367 1370 1377 1382 1387 1393 1399 1406 1412
1480 1474 1469 1464 1459 1453 1448 1442 1436 1431 1426 1420 1414 1409 1405 1399 1394 1387 1380 1373 1368 1363 1358 1355 1353 1351 1349 1349 1349 1349 1350 1353 1356 1359 1363 1368 1372 1377 1384 1390 1396 1402 1409
1480 1475 1470 1465 1460 1454 1448 1444 1437 1432 1427 1421 1416 1410 1406 1401 1395 1388 1380 1374 1369 1363 1358 1354 1351 1349 1348 1347 1347 1348 1350 1352 1354 1358 1362 1366 1369 1375 1381 1386 1392 1399 1405
1480 1475 1470 1465 1460 1454 1449 1445 1439 1433 1428 1422 1417 1411 1406 1402 1396 1390 1382 1376 1370 1364 1359 1354 1351 1348 1346 1345 1345 1346 1348 1350 1353 1356 1359 1364 1368 1373 1378 1383 1389 1395 1401